Year,Month,Day,Hour,Minute,Value (Times are PST for windspeed in km/hr)
2015,08,30,00,00,3.30
2015,08,30,00,01,3.10
2015,08,30,00,02,2.20
2015,08,30,00,03,3.70
2015,08,30,00,04,4.00
2015,08,30,00,05,1.90
2015,08,30,00,06,0.60
2015,08,30,00,07,2.50
2015,08,30,00,08,2.50
2015,08,30,00,09,2.80
2015,08,30,00,10,2.40
2015,08,30,00,11,2.10
2015,08,30,00,12,2.20
2015,08,30,00,13,2.20
2015,08,30,00,14,1.70
2015,08,30,00,15,2.40
2015,08,30,00,16,4.00
2015,08,30,00,17,7.30
2015,08,30,00,18,6.30
2015,08,30,00,19,5.50
2015,08,30,00,20,4.90
2015,08,30,00,21,5.40
2015,08,30,00,22,5.60
2015,08,30,00,23,4.90
2015,08,30,00,24,6.10
2015,08,30,00,25,5.60
2015,08,30,00,26,10.20
2015,08,30,00,27,9.90
2015,08,30,00,28,9.70
2015,08,30,00,29,9.40
2015,08,30,00,30,7.80
2015,08,30,00,31,8.40
2015,08,30,00,32,10.60
2015,08,30,00,33,8.90
2015,08,30,00,34,7.10
2015,08,30,00,35,11.10
2015,08,30,00,36,9.00
2015,08,30,00,37,7.90
2015,08,30,00,38,9.70
2015,08,30,00,39,13.00
2015,08,30,00,40,9.40
2015,08,30,00,41,8.00
2015,08,30,00,42,5.90
2015,08,30,00,43,6.40
2015,08,30,00,44,8.20
2015,08,30,00,45,7.30
2015,08,30,00,46,4.60
2015,08,30,00,47,3.80
2015,08,30,00,48,4.40
2015,08,30,00,49,5.10
2015,08,30,00,50,5.10
2015,08,30,00,51,5.60
2015,08,30,00,52,6.00
2015,08,30,00,53,9.40
2015,08,30,00,54,8.80
2015,08,30,00,55,7.30
2015,08,30,00,56,4.90
2015,08,30,00,57,8.10
2015,08,30,00,58,6.40
2015,08,30,00,59,4.90
2015,08,30,01,00,5.20
2015,08,30,01,01,3.90
2015,08,30,01,02,5.60
2015,08,30,01,03,3.60
2015,08,30,01,04,4.20
2015,08,30,01,05,3.70
2015,08,30,01,06,3.60
2015,08,30,01,07,4.60
2015,08,30,01,08,4.80
2015,08,30,01,09,4.10
2015,08,30,01,10,5.00
2015,08,30,01,11,4.00
2015,08,30,01,12,5.60
2015,08,30,01,13,2.90
2015,08,30,01,14,3.10
2015,08,30,01,15,0.60
2015,08,30,01,16,1.80
2015,08,30,01,17,0.30
2015,08,30,01,18,0.00
2015,08,30,01,19,0.00
2015,08,30,01,20,0.00
2015,08,30,01,21,0.10
2015,08,30,01,22,0.00
2015,08,30,01,23,1.00
2015,08,30,01,24,0.90
2015,08,30,01,25,0.20
2015,08,30,01,26,1.60
2015,08,30,01,27,1.10
2015,08,30,01,28,0.50
2015,08,30,01,29,0.50
2015,08,30,01,30,0.10
2015,08,30,01,31,0.00
2015,08,30,01,32,0.00
2015,08,30,01,33,0.00
2015,08,30,01,34,0.00
2015,08,30,01,35,0.00
2015,08,30,01,36,0.00
2015,08,30,01,37,0.90
2015,08,30,01,38,0.00
2015,08,30,01,39,0.00
2015,08,30,01,40,0.00
2015,08,30,01,41,0.00
2015,08,30,01,42,1.00
2015,08,30,01,43,3.00
2015,08,30,01,44,3.20
2015,08,30,01,45,2.90
2015,08,30,01,46,2.40
2015,08,30,01,47,1.40
2015,08,30,01,48,0.90
2015,08,30,01,49,2.50
2015,08,30,01,50,3.70
2015,08,30,01,51,3.30
2015,08,30,01,52,4.80
2015,08,30,01,53,4.10
2015,08,30,01,54,3.30
2015,08,30,01,55,2.20
2015,08,30,01,56,2.60
2015,08,30,01,57,2.30
2015,08,30,01,58,0.80
2015,08,30,01,59,3.80
2015,08,30,02,00,2.40
2015,08,30,02,01,0.20
2015,08,30,02,02,0.00
2015,08,30,02,03,0.10
2015,08,30,02,04,0.50
2015,08,30,02,05,0.00
2015,08,30,02,06,3.00
2015,08,30,02,07,5.90
2015,08,30,02,08,6.50
2015,08,30,02,09,6.60
2015,08,30,02,10,6.00
2015,08,30,02,11,5.30
2015,08,30,02,12,4.00
2015,08,30,02,13,3.00
2015,08,30,02,14,2.10
2015,08,30,02,15,4.20
2015,08,30,02,16,2.80
2015,08,30,02,17,1.20
2015,08,30,02,18,3.30
2015,08,30,02,19,5.20
2015,08,30,02,20,4.30
2015,08,30,02,21,4.60
2015,08,30,02,22,3.30
2015,08,30,02,23,3.90
2015,08,30,02,24,3.30
2015,08,30,02,25,2.90
2015,08,30,02,26,3.40
2015,08,30,02,27,1.90
2015,08,30,02,28,2.30
2015,08,30,02,29,0.90
2015,08,30,02,30,1.30
2015,08,30,02,31,2.70
2015,08,30,02,32,3.80
2015,08,30,02,33,2.80
2015,08,30,02,34,1.80
2015,08,30,02,35,3.20
2015,08,30,02,36,2.50
2015,08,30,02,37,4.40
2015,08,30,02,38,3.20
2015,08,30,02,39,2.60
2015,08,30,02,40,3.90
2015,08,30,02,41,2.80
2015,08,30,02,42,0.90
2015,08,30,02,43,0.10
2015,08,30,02,44,0.40
2015,08,30,02,45,0.50
2015,08,30,02,46,1.20
2015,08,30,02,47,1.80
2015,08,30,02,48,1.90
2015,08,30,02,49,1.40
2015,08,30,02,50,1.10
2015,08,30,02,51,2.20
2015,08,30,02,52,2.40
2015,08,30,02,53,0.40
2015,08,30,02,54,2.50
2015,08,30,02,55,3.00
2015,08,30,02,56,2.30
2015,08,30,02,57,3.90
2015,08,30,02,58,4.20
2015,08,30,02,59,5.70
2015,08,30,03,00,5.70
2015,08,30,03,01,4.60
2015,08,30,03,02,2.70
2015,08,30,03,03,1.00
2015,08,30,03,04,1.80
2015,08,30,03,05,1.00
2015,08,30,03,06,0.70
2015,08,30,03,07,0.40
2015,08,30,03,08,1.40
2015,08,30,03,09,0.10
2015,08,30,03,10,0.70
2015,08,30,03,11,0.20
2015,08,30,03,12,1.70
2015,08,30,03,13,0.20
2015,08,30,03,14,0.00
2015,08,30,03,15,0.00
2015,08,30,03,16,0.00
2015,08,30,03,17,0.20
2015,08,30,03,18,1.90
2015,08,30,03,19,2.50
2015,08,30,03,20,2.00
2015,08,30,03,21,2.70
2015,08,30,03,22,2.00
2015,08,30,03,23,4.10
2015,08,30,03,24,2.20
2015,08,30,03,25,3.20
2015,08,30,03,26,3.90
2015,08,30,03,27,4.20
2015,08,30,03,28,2.40
2015,08,30,03,29,1.50
2015,08,30,03,30,0.10
2015,08,30,03,31,1.30
2015,08,30,03,32,0.10
2015,08,30,03,33,0.00
2015,08,30,03,34,0.00
2015,08,30,03,35,0.00
2015,08,30,03,36,0.30
2015,08,30,03,37,0.90
2015,08,30,03,38,0.00
2015,08,30,03,39,0.00
2015,08,30,03,40,0.00
2015,08,30,03,41,0.60
2015,08,30,03,42,1.50
2015,08,30,03,43,0.00
2015,08,30,03,44,0.00
2015,08,30,03,45,0.00
2015,08,30,03,46,0.40
2015,08,30,03,47,2.80
2015,08,30,03,48,3.20
2015,08,30,03,49,2.70
2015,08,30,03,50,1.20
2015,08,30,03,51,1.10
2015,08,30,03,52,2.60
2015,08,30,03,53,2.70
2015,08,30,03,54,3.00
2015,08,30,03,55,3.00
2015,08,30,03,56,2.20
2015,08,30,03,57,2.80
2015,08,30,03,58,5.70
2015,08,30,03,59,5.60
2015,08,30,04,00,5.40
2015,08,30,04,01,4.50
2015,08,30,04,02,5.40
2015,08,30,04,03,3.90
2015,08,30,04,04,4.00
2015,08,30,04,05,1.50
2015,08,30,04,06,0.30
2015,08,30,04,07,0.00
2015,08,30,04,08,0.00
2015,08,30,04,09,0.00
2015,08,30,04,10,0.20
2015,08,30,04,11,0.10
2015,08,30,04,12,1.10
2015,08,30,04,13,1.00
2015,08,30,04,14,0.30
2015,08,30,04,15,1.10
2015,08,30,04,16,1.10
2015,08,30,04,17,2.80
2015,08,30,04,18,2.50
2015,08,30,04,19,2.30
2015,08,30,04,20,2.80
2015,08,30,04,21,3.00
2015,08,30,04,22,5.60
2015,08,30,04,23,5.80
2015,08,30,04,24,5.30
2015,08,30,04,25,7.80
2015,08,30,04,26,5.80
2015,08,30,04,27,6.40
2015,08,30,04,28,5.50
2015,08,30,04,29,4.40
2015,08,30,04,30,2.40
2015,08,30,04,31,1.20
2015,08,30,04,32,0.60
2015,08,30,04,33,4.10
2015,08,30,04,34,2.00
2015,08,30,04,35,2.00
2015,08,30,04,36,3.80
2015,08,30,04,37,3.50
2015,08,30,04,38,3.80
2015,08,30,04,39,2.50
2015,08,30,04,40,0.90
2015,08,30,04,41,0.60
2015,08,30,04,42,1.60
2015,08,30,04,43,3.20
2015,08,30,04,44,1.20
2015,08,30,04,45,2.30
2015,08,30,04,46,1.30
2015,08,30,04,47,2.10
2015,08,30,04,48,1.50
2015,08,30,04,49,1.30
2015,08,30,04,50,0.80
2015,08,30,04,51,2.70
2015,08,30,04,52,2.90
2015,08,30,04,53,0.90
2015,08,30,04,54,1.40
2015,08,30,04,55,2.40
2015,08,30,04,56,1.20
2015,08,30,04,57,2.20
2015,08,30,04,58,0.60
2015,08,30,04,59,2.90
2015,08,30,05,00,2.80
2015,08,30,05,01,2.00
2015,08,30,05,02,3.90
2015,08,30,05,03,6.40
2015,08,30,05,04,4.00
2015,08,30,05,05,3.70
2015,08,30,05,06,6.20
2015,08,30,05,07,7.20
2015,08,30,05,08,7.20
2015,08,30,05,09,7.10
2015,08,30,05,10,7.90
2015,08,30,05,11,5.90
2015,08,30,05,12,6.30
2015,08,30,05,13,7.10
2015,08,30,05,14,5.90
2015,08,30,05,15,4.20
2015,08,30,05,16,5.60
2015,08,30,05,17,2.70
2015,08,30,05,18,1.30
2015,08,30,05,19,0.00
2015,08,30,05,20,0.00
2015,08,30,05,21,0.20
2015,08,30,05,22,1.90
2015,08,30,05,23,1.00
2015,08,30,05,24,0.20
2015,08,30,05,25,0.00
2015,08,30,05,26,1.70
2015,08,30,05,27,2.70
2015,08,30,05,28,3.00
2015,08,30,05,29,2.30
2015,08,30,05,30,3.30
2015,08,30,05,31,1.10
2015,08,30,05,32,0.20
2015,08,30,05,33,0.30
2015,08,30,05,34,0.50
2015,08,30,05,35,0.20
2015,08,30,05,36,0.00
2015,08,30,05,37,0.00
2015,08,30,05,38,0.00
2015,08,30,05,39,0.00
2015,08,30,05,40,0.00
2015,08,30,05,41,0.00
2015,08,30,05,42,0.10
2015,08,30,05,43,0.80
2015,08,30,05,44,0.20
2015,08,30,05,45,1.30
2015,08,30,05,46,1.80
2015,08,30,05,47,0.00
2015,08,30,05,48,0.50
2015,08,30,05,49,0.60
2015,08,30,05,50,2.10
2015,08,30,05,51,2.00
2015,08,30,05,52,1.60
2015,08,30,05,53,2.20
2015,08,30,05,54,3.90
2015,08,30,05,55,4.40
2015,08,30,05,56,4.40
2015,08,30,05,57,4.50
2015,08,30,05,58,3.10
2015,08,30,05,59,4.60
2015,08,30,06,00,4.60
2015,08,30,06,01,5.40
2015,08,30,06,02,3.90
2015,08,30,06,03,5.30
2015,08,30,06,04,2.90
2015,08,30,06,05,3.50
2015,08,30,06,06,2.80
2015,08,30,06,07,4.60
2015,08,30,06,08,5.20
2015,08,30,06,09,5.80
2015,08,30,06,10,6.30
2015,08,30,06,11,4.90
2015,08,30,06,12,6.20
2015,08,30,06,13,2.50
2015,08,30,06,14,5.30
2015,08,30,06,15,6.10
2015,08,30,06,16,3.50
2015,08,30,06,17,3.50
2015,08,30,06,18,2.60
2015,08,30,06,19,3.20
2015,08,30,06,20,1.60
2015,08,30,06,21,3.30
2015,08,30,06,22,3.40
2015,08,30,06,23,3.10
2015,08,30,06,24,0.90
2015,08,30,06,25,0.00
2015,08,30,06,26,1.70
2015,08,30,06,27,0.40
2015,08,30,06,28,0.30
2015,08,30,06,29,0.10
2015,08,30,06,30,0.10
2015,08,30,06,31,1.80
2015,08,30,06,32,2.00
2015,08,30,06,33,2.20
2015,08,30,06,34,2.90
2015,08,30,06,35,2.70
2015,08,30,06,36,2.90
2015,08,30,06,37,3.90
2015,08,30,06,38,4.20
2015,08,30,06,39,5.50
2015,08,30,06,40,4.70
2015,08,30,06,41,4.40
2015,08,30,06,42,3.90
2015,08,30,06,43,3.50
2015,08,30,06,44,2.60
2015,08,30,06,45,4.20
2015,08,30,06,46,4.70
2015,08,30,06,47,3.80
2015,08,30,06,48,1.00
2015,08,30,06,49,0.10
2015,08,30,06,50,0.00
2015,08,30,06,51,0.00
2015,08,30,06,52,0.00
2015,08,30,06,53,3.20
2015,08,30,06,54,3.00
2015,08,30,06,55,2.50
2015,08,30,06,56,3.50
2015,08,30,06,57,2.60
2015,08,30,06,58,1.00
2015,08,30,06,59,0.70
2015,08,30,07,00,0.10
2015,08,30,07,01,1.10
2015,08,30,07,02,0.00
2015,08,30,07,03,1.90
2015,08,30,07,04,3.30
2015,08,30,07,05,2.90
2015,08,30,07,06,2.00
2015,08,30,07,07,1.80
2015,08,30,07,08,0.80
2015,08,30,07,09,0.00
2015,08,30,07,10,0.00
2015,08,30,07,11,0.00
2015,08,30,07,12,0.20
2015,08,30,07,13,1.70
2015,08,30,07,14,2.20
2015,08,30,07,15,2.80
2015,08,30,07,16,0.30
2015,08,30,07,17,0.90
2015,08,30,07,18,0.80
2015,08,30,07,19,0.00
2015,08,30,07,20,0.10
2015,08,30,07,21,0.70
2015,08,30,07,22,2.70
2015,08,30,07,23,0.40
2015,08,30,07,24,0.00
2015,08,30,07,25,0.00
2015,08,30,07,26,0.00
2015,08,30,07,27,0.30
2015,08,30,07,28,0.00
2015,08,30,07,29,0.00
2015,08,30,07,30,0.00
2015,08,30,07,31,1.10
2015,08,30,07,32,0.10
2015,08,30,07,33,0.00
2015,08,30,07,34,0.00
2015,08,30,07,35,0.10
2015,08,30,07,36,3.60
2015,08,30,07,37,3.80
2015,08,30,07,38,2.10
2015,08,30,07,39,0.00
2015,08,30,07,40,0.20
2015,08,30,07,41,1.20
2015,08,30,07,42,3.50
2015,08,30,07,43,3.40
2015,08,30,07,44,2.90
2015,08,30,07,45,2.80
2015,08,30,07,46,0.10
2015,08,30,07,47,0.00
2015,08,30,07,48,0.00
2015,08,30,07,49,1.60
2015,08,30,07,50,3.30
2015,08,30,07,51,5.50
2015,08,30,07,52,4.10
2015,08,30,07,53,4.50
2015,08,30,07,54,5.70
2015,08,30,07,55,5.20
2015,08,30,07,56,6.50
2015,08,30,07,57,5.70
2015,08,30,07,58,5.80
2015,08,30,07,59,4.50
2015,08,30,08,00,4.40
2015,08,30,08,01,6.30
2015,08,30,08,02,3.70
2015,08,30,08,03,3.10
2015,08,30,08,04,2.80
2015,08,30,08,05,3.50
2015,08,30,08,06,1.50
2015,08,30,08,07,2.30
2015,08,30,08,08,3.60
2015,08,30,08,09,3.60
2015,08,30,08,10,4.50
2015,08,30,08,11,3.10
2015,08,30,08,12,0.90
2015,08,30,08,13,4.20
2015,08,30,08,14,3.30
2015,08,30,08,15,4.70
2015,08,30,08,16,3.80
2015,08,30,08,17,2.60
2015,08,30,08,18,4.50
2015,08,30,08,19,3.30
2015,08,30,08,20,1.90
2015,08,30,08,21,2.70
2015,08,30,08,22,1.80
2015,08,30,08,23,5.40
2015,08,30,08,24,5.80
2015,08,30,08,25,6.30
2015,08,30,08,26,6.50
2015,08,30,08,27,5.90
2015,08,30,08,28,4.50
2015,08,30,08,29,7.30
2015,08,30,08,30,5.60
2015,08,30,08,31,5.30
2015,08,30,08,32,4.40
2015,08,30,08,33,5.60
2015,08,30,08,34,6.70
2015,08,30,08,35,6.80
2015,08,30,08,36,5.30
2015,08,30,08,37,3.90
2015,08,30,08,38,7.20
2015,08,30,08,39,9.20
2015,08,30,08,40,6.90
2015,08,30,08,41,6.80
2015,08,30,08,42,4.60
2015,08,30,08,43,3.40
2015,08,30,08,44,4.60
2015,08,30,08,45,5.30
2015,08,30,08,46,2.40
2015,08,30,08,47,8.20
2015,08,30,08,48,6.90
2015,08,30,08,49,7.00
2015,08,30,08,50,6.50
2015,08,30,08,51,5.60
2015,08,30,08,52,4.80
2015,08,30,08,53,7.70
2015,08,30,08,54,6.00
2015,08,30,08,55,4.60
2015,08,30,08,56,4.30
2015,08,30,08,57,3.30
2015,08,30,08,58,9.20
2015,08,30,08,59,8.60
2015,08,30,09,00,8.20
2015,08,30,09,01,8.70
2015,08,30,09,02,6.70
2015,08,30,09,03,5.90
2015,08,30,09,04,7.10
2015,08,30,09,05,7.70
2015,08,30,09,06,8.70
2015,08,30,09,07,7.20
2015,08,30,09,08,8.20
2015,08,30,09,09,9.90
2015,08,30,09,10,11.20
2015,08,30,09,11,8.30
2015,08,30,09,12,8.80
2015,08,30,09,13,7.80
2015,08,30,09,14,11.10
2015,08,30,09,15,11.00
2015,08,30,09,16,6.30
2015,08,30,09,17,6.00
2015,08,30,09,18,7.30
2015,08,30,09,19,4.40
2015,08,30,09,20,3.20
2015,08,30,09,21,4.30
2015,08,30,09,22,6.30
2015,08,30,09,23,8.20
2015,08,30,09,24,7.30
2015,08,30,09,25,7.60
2015,08,30,09,26,9.40
2015,08,30,09,27,8.90
2015,08,30,09,28,6.20
2015,08,30,09,29,8.90
2015,08,30,09,30,8.30
2015,08,30,09,31,7.40
2015,08,30,09,32,8.20
2015,08,30,09,33,4.00
2015,08,30,09,34,4.90
2015,08,30,09,35,7.90
2015,08,30,09,36,9.00
2015,08,30,09,37,5.70
2015,08,30,09,38,6.80
2015,08,30,09,39,6.20
2015,08,30,09,40,7.20
2015,08,30,09,41,8.20
2015,08,30,09,42,9.40
2015,08,30,09,43,6.40
2015,08,30,09,44,6.70
2015,08,30,09,45,4.90
2015,08,30,09,46,2.00
2015,08,30,09,47,7.60
2015,08,30,09,48,8.90
2015,08,30,09,49,11.30
2015,08,30,09,50,10.20
2015,08,30,09,51,9.10
2015,08,30,09,52,9.20
2015,08,30,09,53,12.30
2015,08,30,09,54,8.90
2015,08,30,09,55,11.70
2015,08,30,09,56,12.00
2015,08,30,09,57,10.60
2015,08,30,09,58,10.00
2015,08,30,09,59,6.30
2015,08,30,10,00,9.20
2015,08,30,10,01,14.00
2015,08,30,10,02,8.40
2015,08,30,10,03,10.40
2015,08,30,10,04,7.70
2015,08,30,10,05,8.30
2015,08,30,10,06,7.90
2015,08,30,10,07,12.00
2015,08,30,10,08,11.00
2015,08,30,10,09,9.80
2015,08,30,10,10,7.50
2015,08,30,10,11,10.20
2015,08,30,10,12,9.30
2015,08,30,10,13,7.20
2015,08,30,10,14,5.30
2015,08,30,10,15,6.40
2015,08,30,10,16,8.50
2015,08,30,10,17,11.40
2015,08,30,10,18,11.70
2015,08,30,10,19,8.10
2015,08,30,10,20,6.00
2015,08,30,10,21,6.50
2015,08,30,10,22,8.20
2015,08,30,10,23,6.20
2015,08,30,10,24,7.90
2015,08,30,10,25,7.80
2015,08,30,10,26,14.70
2015,08,30,10,27,10.80
2015,08,30,10,28,13.00
2015,08,30,10,29,9.80
2015,08,30,10,30,7.90
2015,08,30,10,31,4.40
2015,08,30,10,32,4.50
2015,08,30,10,33,9.80
2015,08,30,10,34,9.90
2015,08,30,10,35,6.20
2015,08,30,10,36,6.20
2015,08,30,10,37,2.90
2015,08,30,10,38,2.90
2015,08,30,10,39,7.60
2015,08,30,10,40,10.00
2015,08,30,10,41,10.40
2015,08,30,10,42,9.00
2015,08,30,10,43,10.90
2015,08,30,10,44,9.90
2015,08,30,10,45,8.90
2015,08,30,10,46,10.30
2015,08,30,10,47,7.30
2015,08,30,10,48,5.90
2015,08,30,10,49,11.00
2015,08,30,10,50,9.70
2015,08,30,10,51,10.50
2015,08,30,10,52,9.90
2015,08,30,10,53,9.00
2015,08,30,10,54,9.80
2015,08,30,10,55,9.50
2015,08,30,10,56,9.30
2015,08,30,10,57,9.30
2015,08,30,10,58,8.70
2015,08,30,10,59,9.00
2015,08,30,11,00,7.90
2015,08,30,11,01,12.60
2015,08,30,11,02,11.60
2015,08,30,11,03,9.70
2015,08,30,11,04,6.80
2015,08,30,11,05,7.50
2015,08,30,11,06,8.80
2015,08,30,11,07,9.90
2015,08,30,11,08,10.40
2015,08,30,11,09,10.80
2015,08,30,11,10,10.50
2015,08,30,11,11,7.00
2015,08,30,11,12,7.90
2015,08,30,11,13,6.20
2015,08,30,11,14,8.80
2015,08,30,11,15,9.70
2015,08,30,11,16,9.00
2015,08,30,11,17,8.80
2015,08,30,11,18,9.70
2015,08,30,11,19,8.20
2015,08,30,11,20,6.00
2015,08,30,11,21,5.90
2015,08,30,11,22,8.50
2015,08,30,11,23,7.00
2015,08,30,11,24,8.50
2015,08,30,11,25,11.60
2015,08,30,11,26,12.50
2015,08,30,11,27,11.20
2015,08,30,11,28,10.40
2015,08,30,11,29,10.80
2015,08,30,11,30,7.00
2015,08,30,11,31,14.60
2015,08,30,11,32,7.80
2015,08,30,11,33,8.90
2015,08,30,11,34,7.80
2015,08,30,11,35,6.50
2015,08,30,11,36,6.40
2015,08,30,11,37,16.10
2015,08,30,11,38,14.90
2015,08,30,11,39,11.50
2015,08,30,11,40,15.80
2015,08,30,11,41,10.10
2015,08,30,11,42,7.20
2015,08,30,11,43,5.70
2015,08,30,11,44,4.60
2015,08,30,11,45,8.90
2015,08,30,11,46,8.00
2015,08,30,11,47,5.40
2015,08,30,11,48,13.00
2015,08,30,11,49,9.40
2015,08,30,11,50,13.50
2015,08,30,11,51,13.00
2015,08,30,11,52,9.10
2015,08,30,11,53,11.80
2015,08,30,11,54,9.30
2015,08,30,11,55,7.90
2015,08,30,11,56,14.10
2015,08,30,11,57,12.40
2015,08,30,11,58,13.70
2015,08,30,11,59,17.70
2015,08,30,12,00,10.40
2015,08,30,12,01,11.30
2015,08,30,12,02,11.90
2015,08,30,12,03,12.20
2015,08,30,12,04,11.40
2015,08,30,12,05,10.10
2015,08,30,12,06,10.80
2015,08,30,12,07,11.30
2015,08,30,12,08,8.90
2015,08,30,12,09,7.90
2015,08,30,12,10,6.90
2015,08,30,12,11,8.90
2015,08,30,12,12,10.80
2015,08,30,12,13,12.00
2015,08,30,12,14,12.90
2015,08,30,12,15,14.50
2015,08,30,12,16,10.40
2015,08,30,12,17,13.40
2015,08,30,12,18,13.40
2015,08,30,12,19,14.80
2015,08,30,12,20,12.30
2015,08,30,12,21,17.30
2015,08,30,12,22,14.30
2015,08,30,12,23,11.30
2015,08,30,12,24,12.60
2015,08,30,12,25,12.60
2015,08,30,12,26,11.20
2015,08,30,12,27,10.20
2015,08,30,12,28,15.20
2015,08,30,12,29,14.30
2015,08,30,12,30,11.70
2015,08,30,12,31,13.40
2015,08,30,12,32,14.20
2015,08,30,12,33,17.40
2015,08,30,12,34,18.80
2015,08,30,12,35,12.40
2015,08,30,12,36,9.60
2015,08,30,12,37,11.40
2015,08,30,12,38,19.80
2015,08,30,12,39,18.10
2015,08,30,12,40,16.00
2015,08,30,12,41,17.60
2015,08,30,12,42,13.20
2015,08,30,12,43,19.10
2015,08,30,12,44,14.00
2015,08,30,12,45,15.60
2015,08,30,12,46,14.80
2015,08,30,12,47,16.60
2015,08,30,12,48,12.40
2015,08,30,12,49,15.10
2015,08,30,12,50,9.50
2015,08,30,12,51,11.50
2015,08,30,12,52,13.90
2015,08,30,12,53,12.70
2015,08,30,12,54,14.40
2015,08,30,12,55,10.70
2015,08,30,12,56,14.50
2015,08,30,12,57,9.30
2015,08,30,12,58,12.80
2015,08,30,12,59,9.90
2015,08,30,13,00,11.80
2015,08,30,13,01,10.60
2015,08,30,13,02,10.70
2015,08,30,13,03,18.30
2015,08,30,13,04,11.80
2015,08,30,13,05,16.40
2015,08,30,13,06,11.80
2015,08,30,13,07,9.20
2015,08,30,13,08,15.40
2015,08,30,13,09,8.60
2015,08,30,13,10,14.90
2015,08,30,13,11,14.40
2015,08,30,13,12,16.10
2015,08,30,13,13,13.40
2015,08,30,13,14,13.50
2015,08,30,13,15,14.20
2015,08,30,13,16,13.70
2015,08,30,13,17,11.50
2015,08,30,13,18,18.30
2015,08,30,13,19,14.40
2015,08,30,13,20,9.00
2015,08,30,13,21,15.00
2015,08,30,13,22,10.00
2015,08,30,13,23,9.30
2015,08,30,13,24,8.50
2015,08,30,13,25,10.90
2015,08,30,13,26,10.00
2015,08,30,13,27,11.70
2015,08,30,13,28,13.50
2015,08,30,13,29,9.80
2015,08,30,13,30,10.00
2015,08,30,13,31,9.30
2015,08,30,13,32,10.90
2015,08,30,13,33,13.90
2015,08,30,13,34,10.60
2015,08,30,13,35,8.10
2015,08,30,13,36,9.90
2015,08,30,13,37,11.20
2015,08,30,13,38,16.70
2015,08,30,13,39,12.50
2015,08,30,13,40,14.10
2015,08,30,13,41,11.20
2015,08,30,13,42,9.10
2015,08,30,13,43,11.00
2015,08,30,13,44,11.40
2015,08,30,13,45,7.30
2015,08,30,13,46,17.10
2015,08,30,13,47,12.60
2015,08,30,13,48,12.90
2015,08,30,13,49,10.40
2015,08,30,13,50,19.10
2015,08,30,13,51,11.40
2015,08,30,13,52,12.60
2015,08,30,13,53,18.80
2015,08,30,13,54,15.80
2015,08,30,13,55,17.50
2015,08,30,13,56,15.80
2015,08,30,13,57,12.40
2015,08,30,13,58,16.10
2015,08,30,13,59,14.70
2015,08,30,14,00,14.80
2015,08,30,14,01,13.60
2015,08,30,14,02,14.20
2015,08,30,14,03,15.60
2015,08,30,14,04,18.40
2015,08,30,14,05,17.90
2015,08,30,14,06,11.90
2015,08,30,14,07,11.70
2015,08,30,14,08,10.10
2015,08,30,14,09,12.80
2015,08,30,14,10,10.80
2015,08,30,14,11,15.60
2015,08,30,14,12,12.60
2015,08,30,14,13,10.50
2015,08,30,14,14,10.80
2015,08,30,14,15,8.80
2015,08,30,14,16,13.10
2015,08,30,14,17,8.70
2015,08,30,14,18,5.90
2015,08,30,14,19,8.30
2015,08,30,14,20,13.20
2015,08,30,14,21,11.10
2015,08,30,14,22,17.00
2015,08,30,14,23,8.50
2015,08,30,14,24,8.50
2015,08,30,14,25,14.80
2015,08,30,14,26,13.20
2015,08,30,14,27,14.50
2015,08,30,14,28,12.10
2015,08,30,14,29,11.90
2015,08,30,14,30,11.60
2015,08,30,14,31,10.70
2015,08,30,14,32,10.20
2015,08,30,14,33,11.40
2015,08,30,14,34,16.70
2015,08,30,14,35,10.50
2015,08,30,14,36,15.50
2015,08,30,14,37,14.40
2015,08,30,14,38,14.10
2015,08,30,14,39,11.90
2015,08,30,14,40,13.70
2015,08,30,14,41,21.40
2015,08,30,14,42,21.30
2015,08,30,14,43,11.20
2015,08,30,14,44,15.50
2015,08,30,14,45,16.80
2015,08,30,14,46,15.40
2015,08,30,14,47,18.80
2015,08,30,14,48,17.00
2015,08,30,14,49,18.00
2015,08,30,14,50,15.90
2015,08,30,14,51,14.30
2015,08,30,14,52,14.70
2015,08,30,14,53,22.80
2015,08,30,14,54,15.10
2015,08,30,14,55,16.50
2015,08,30,14,56,13.90
2015,08,30,14,57,10.40
2015,08,30,14,58,16.10
2015,08,30,14,59,14.90
2015,08,30,15,00,13.00
2015,08,30,15,01,17.20
2015,08,30,15,02,12.00
2015,08,30,15,03,16.20
2015,08,30,15,04,16.50
2015,08,30,15,05,19.30
2015,08,30,15,06,15.20
2015,08,30,15,07,13.30
2015,08,30,15,08,13.20
2015,08,30,15,09,14.40
2015,08,30,15,10,13.90
2015,08,30,15,11,16.80
2015,08,30,15,12,10.20
2015,08,30,15,13,17.00
2015,08,30,15,14,14.60
2015,08,30,15,15,9.10
2015,08,30,15,16,20.10
2015,08,30,15,17,17.90
2015,08,30,15,18,12.80
2015,08,30,15,19,12.30
2015,08,30,15,20,14.30
2015,08,30,15,21,11.60
2015,08,30,15,22,10.30
2015,08,30,15,23,16.50
2015,08,30,15,24,16.30
2015,08,30,15,25,20.10
2015,08,30,15,26,12.00
2015,08,30,15,27,12.50
2015,08,30,15,28,12.70
2015,08,30,15,29,13.40
2015,08,30,15,30,13.50
2015,08,30,15,31,16.20
2015,08,30,15,32,15.80
2015,08,30,15,33,14.60
2015,08,30,15,34,16.30
2015,08,30,15,35,10.50
2015,08,30,15,36,6.40
2015,08,30,15,37,7.60
2015,08,30,15,38,7.60
2015,08,30,15,39,7.30
2015,08,30,15,40,8.00
2015,08,30,15,41,6.50
2015,08,30,15,42,11.00
2015,08,30,15,43,8.20
2015,08,30,15,44,8.20
2015,08,30,15,45,8.20
2015,08,30,15,46,6.80
2015,08,30,15,47,11.30
2015,08,30,15,48,11.00
2015,08,30,15,49,7.00
2015,08,30,15,50,6.60
2015,08,30,15,51,7.20
2015,08,30,15,52,8.00
2015,08,30,15,53,7.00
2015,08,30,15,54,9.20
2015,08,30,15,55,8.60
2015,08,30,15,56,7.10
2015,08,30,15,57,5.10
2015,08,30,15,58,11.80
2015,08,30,15,59,10.80
2015,08,30,16,00,10.40
2015,08,30,16,01,9.80
2015,08,30,16,02,11.70
2015,08,30,16,03,11.70
2015,08,30,16,04,10.20
2015,08,30,16,05,8.20
2015,08,30,16,06,10.60
2015,08,30,16,07,11.40
2015,08,30,16,08,9.10
2015,08,30,16,09,12.20
2015,08,30,16,10,11.00
2015,08,30,16,11,9.90
2015,08,30,16,12,9.00
2015,08,30,16,13,8.20
2015,08,30,16,14,11.70
2015,08,30,16,15,8.10
2015,08,30,16,16,12.50
2015,08,30,16,17,8.20
2015,08,30,16,18,11.70
2015,08,30,16,19,16.90
2015,08,30,16,20,15.60
2015,08,30,16,21,15.50
2015,08,30,16,22,11.40
2015,08,30,16,23,15.80
2015,08,30,16,24,15.10
2015,08,30,16,25,10.50
2015,08,30,16,26,14.20
2015,08,30,16,27,10.70
2015,08,30,16,28,11.60
2015,08,30,16,29,10.80
2015,08,30,16,30,11.80
2015,08,30,16,31,17.20
2015,08,30,16,32,14.90
2015,08,30,16,33,14.90
2015,08,30,16,34,13.90
2015,08,30,16,35,12.20
2015,08,30,16,36,15.00
2015,08,30,16,37,15.40
2015,08,30,16,38,10.90
2015,08,30,16,39,6.40
2015,08,30,16,40,10.30
2015,08,30,16,41,8.10
2015,08,30,16,42,14.80
2015,08,30,16,43,12.60
2015,08,30,16,44,8.30
2015,08,30,16,45,11.10
2015,08,30,16,46,8.10
2015,08,30,16,47,8.60
2015,08,30,16,48,8.70
2015,08,30,16,49,6.40
2015,08,30,16,50,10.10
2015,08,30,16,51,6.70
2015,08,30,16,52,11.00
2015,08,30,16,53,8.70
2015,08,30,16,54,5.80
2015,08,30,16,55,6.00
2015,08,30,16,56,8.50
2015,08,30,16,57,10.50
2015,08,30,16,58,11.90
2015,08,30,16,59,13.00
2015,08,30,17,00,9.70
2015,08,30,17,01,7.80
2015,08,30,17,02,8.00
2015,08,30,17,03,13.90
2015,08,30,17,04,13.30
2015,08,30,17,05,11.40
2015,08,30,17,06,8.30
2015,08,30,17,07,7.60
2015,08,30,17,08,6.60
2015,08,30,17,09,7.40
2015,08,30,17,10,10.30
2015,08,30,17,11,10.50
2015,08,30,17,12,8.00
2015,08,30,17,13,6.00
2015,08,30,17,14,8.10
2015,08,30,17,15,7.20
2015,08,30,17,16,7.60
2015,08,30,17,17,5.10
2015,08,30,17,18,5.20
2015,08,30,17,19,11.50
2015,08,30,17,20,10.60
2015,08,30,17,21,11.80
2015,08,30,17,22,10.20
2015,08,30,17,23,6.40
2015,08,30,17,24,10.70
2015,08,30,17,25,11.30
2015,08,30,17,26,11.80
2015,08,30,17,27,12.60
2015,08,30,17,28,7.20
2015,08,30,17,29,10.70
2015,08,30,17,30,11.50
2015,08,30,17,31,7.00
2015,08,30,17,32,9.00
2015,08,30,17,33,9.20
2015,08,30,17,34,7.20
2015,08,30,17,35,10.70
2015,08,30,17,36,9.70
2015,08,30,17,37,8.70
2015,08,30,17,38,9.50
2015,08,30,17,39,7.10
2015,08,30,17,40,6.00
2015,08,30,17,41,10.70
2015,08,30,17,42,11.60
2015,08,30,17,43,9.50
2015,08,30,17,44,7.40
2015,08,30,17,45,6.40
2015,08,30,17,46,11.20
2015,08,30,17,47,10.20
2015,08,30,17,48,11.80
2015,08,30,17,49,14.90
2015,08,30,17,50,11.70
2015,08,30,17,51,8.90
2015,08,30,17,52,9.40